Weather in Dmytrivka

Ukraine / Zaporizhia Region     46°50′20″N   36°34′17″E
temp.,
°C
wind,
m/s
gust,
m/s
humid.,
%
clouds,
%
prec.,
mm/h
press.,
hPa
HPBL,
m
5 march, fri
fri523:00+5sw9157945 0.0 1016498
02:00+4sw8148223 0.0 1015496
05:00+4sw8148330 0.0 1014476
08:00+5sw8128365 0.0 1014481
11:00+6sw797883 0.0 1014431
14:00+7sw577570 0.0 1013387
17:00+7ssw578276 0.0 1013173
20:00+6ssw7108788 0.0 1013197
6 march, sat
sat623:00+6sw61090100 0.0 1012214
02:00+5sw7129496 0.0 1012282
05:00+5wsw61194100 0.0 1011293
08:00+5wnw6986100 0.0 1013364
11:00+4nnw81172100 0.0 1015775
14:00+4nnw81163100 0.0 10171203
17:00+3nnw81054100 0.0 10201368
20:000nnw7115670 0.0 1024889
7 march, sun
sun723:000nnw59590 0.0 1026777
02:00−1wnw59610 0.0 1027563
05:00−1wnw59600 0.0 1027424
08:000wnw68540 0.0 1027595
11:00+3wsw810470 0.0 10261715
14:00+4wsw9115222 0.0 10241765
17:00+3wsw9115524 0.0 1022831
20:00+2w7115128 0.0 1021673
8 march, mon
mon823:00+2wsw913620 0.0 1020694
02:00+2wsw915690 0.0 1019829
05:00+2wsw9157448 0.0 1018713
08:00+4wsw10147269 0.0 1018959
11:00+5wsw10136898 0.0 10171179
14:00+6sw10136974 0.1 1016968
17:00+5sw9137273 0.1 1015566
20:00+5wsw8137186 0.1 1016418
9 march, tue
tue923:00+4wsw71278100 0.0 1016399
02:00+3w588074 0.0 1015261
05:00+2w458313 0.0 1015180
08:00+3w58776 0.1 1015443
11:00+5w57628 0.1 1016899
14:00+5nw686650 0.4 1016938
17:00+4nnw455491 0.0 1017998
20:00+2n345976 0.0 1019207